This is the latest recevied weather packets stored in our database for station/object KU4DD. If no packets are shown the sender has not sent any weather packets the latest 10 day(s).
| Time | Temp. | Humidity | Pressure | Rain* | Wind** | Luminosity | Snow |
|---|---|---|---|---|---|---|---|
| 1788647533 | 24.44° C | 93% | 1008.8 hPa | 0.51 mm | - | 16 W/m² | - |
| 1788645340 | 25.56° C | 88% | 1009.1 hPa | 0.76 mm | - | 0 W/m² | - |
| 1788642838 | 25° C | 86% | 1009.5 hPa | 1.02 mm | - | 5 W/m² | - |
| 1788641898 | 26.67° C | 78% | 1009.1 hPa | 0.76 mm | - | 9 W/m² | - |
| 1788640963 | 28.89° C | 69% | 1009.1 hPa | 0 mm | - | 7 W/m² | - |
| 1788640035 | 33.89° C | 58% | 1009.1 hPa | 0 mm | - | 25 W/m² | - |
| 1788639096 | 35.56° C | 51% | 1008.5 hPa | 0 mm | - | 244 W/m² | - |
| 1788637242 | 36.67° C | 48% | 1008.8 hPa | 0 mm | - | 540 W/m² | - |
| 1788635688 | 36.67° C | 46% | 1008.8 hPa | 0 mm | - | 262 W/m² | - |
| 1788634142 | 37.78° C | 46% | 1008.8 hPa | 0 mm | - | 1013 W/m² | - |
| 1788629818 | 36.67° C | 49% | 1010.5 hPa | 0 mm | - | 925 W/m² | - |
| 1788628285 | 36.11° C | 52% | 1010.8 hPa | 0 mm | - | 874 W/m² | - |
| 1788623038 | 33.33° C | 59% | 1011.9 hPa | 0 mm | - | 659 W/m² | - |
| 1788622722 | 33.33° C | 62% | 1011.9 hPa | 0 mm | - | 772 W/m² | - |
| 1788621474 | 32.78° C | 65% | 1012.2 hPa | 0 mm | - | 737 W/m² | - |
| 1788620545 | 32.22° C | 69% | 1012.2 hPa | 0 mm | - | 700 W/m² | - |
| 1788619621 | 31.11° C | 73% | 1012.2 hPa | 0 mm | - | 661 W/m² | - |
| 1788619300 | 31.11° C | 72% | 1012.2 hPa | 0 mm | - | 649 W/m² | - |
| 1788616215 | 28.89° C | 79% | 1012.2 hPa | 0 mm | - | 506 W/m² | - |
| 1788613436 | 27.78° C | 86% | 1012.2 hPa | 0 mm | - | 353 W/m² | - |
| 1788610978 | 25.56° C | 91% | 1012.5 hPa | 0 mm | - | 216 W/m² | - |
| 1788609416 | 24.44° C | 93% | 1012.5 hPa | 0 mm | - | 134 W/m² | - |
| 1788607862 | 23.89° C | 94% | 1011.9 hPa | 0 mm | - | 69 W/m² | - |
| 1788607250 | 23.33° C | 95% | 1011.9 hPa | 0 mm | - | 37 W/m² | - |
| 1788606622 | 23.33° C | 95% | 1011.9 hPa | 0 mm | - | 18 W/m² | - |
* Rain latest hour (hover to see other rain measurements)
** Current wind speed in m/s (hover to see current wind gust speed)